Nausori, Fiji

9:32 PM FJT on February 13, 2016 (GMT +1200)
Nausori International

Weather History for NFNA - January, 2009

Change the Weather History Date:

Monday, January 26, 2009

  Actual Average Record
Temperature  
Mean Temperature 79 °F -  
Max Temperature 87 °F - - ()
Min Temperature 71 °F - - ()
Cooling Degree Days 14    
Growing Degree Days 29 (Base 50)    
Moisture  
Dew Point 73 °F    
Average Humidity 78    
Maximum Humidity 100    
Minimum Humidity 54    
Precipitation  
Precipitation 0.02 in - - ()
Sea Level Pressure  
Sea Level Pressure 29.74 in    
Wind  
Wind Speed 3 mph ()    
Max Wind Speed 12 mph    
Max Gust Speed -    
Visibility 12.0 miles    
Events      
T = Trace of Precipitation, MM = Missing Value Source: Averaged Metar Reports

Daily Weather History Graph

Daily Weather History Graph

Search for Another Location

Airport or City:

Trip Planner

Search our weather history database for the weather conditions in past years. The results will help you decide how hot, cold, wet, or windy it might be!

Date:

Astronomy

Jan. 26, 2009 Rise Set
Actual Time 5:48 AM FJT 6:47 PM FJT
Civil Twilight 5:25 AM FJT 7:10 PM FJT
Nautical Twilight 4:58 AM FJT 7:37 PM FJT
Astronomical Twilight 4:30 AM FJT 8:06 PM FJT
Moon 5:22 AM FJT (1/26) 6:41 PM FJT (1/26)
Length of Visible Light 13h 44m
Length of Day
12h 58m
Waning Crescent, 0% of the Moon is Illuminated
Jan 26
Waning Crescent
Jan 26
New
Feb 3
First Quarter
Feb 10
Full
Feb 17
Last Quarter

Hourly Weather History & Observations

Time (FJT) Temp. Heat Index Dew Point Humidity Pressure Visibility Wind Dir Wind Speed Gust Speed Precip Events Conditions
12:00 AM 76 °F - 73 °F 89% 29.78 in 12 mi Calm Calm - -   Partly Cloudy
12:00 AM 77.0 °F - 73.4 °F 89% 29.77 in 24.9 mi Calm Calm - N/A   Scattered Clouds
1:00 AM 75.2 °F - 73.4 °F 94% 29.77 in 24.9 mi Calm Calm - N/A   Scattered Clouds
2:00 AM 75.2 °F - 73.4 °F 94% 29.74 in 24.9 mi Calm Calm - N/A   Scattered Clouds
3:00 AM 74 °F - 71 °F 87% 29.75 in 12 mi Calm Calm - -   Partly Cloudy
3:00 AM 73.4 °F - 71.6 °F 94% 29.74 in 24.9 mi Calm Calm - N/A   Scattered Clouds
4:00 AM 73.4 °F - 73.4 °F 100% 3.16 in 24.9 mi Calm Calm - N/A   Partly Cloudy
5:00 AM 73.4 °F - 71.6 °F 94% 29.74 in 24.9 mi Calm Calm - N/A   Partly Cloudy
6:00 AM 72 °F - 72 °F 100% 29.76 in 31 mi Calm Calm - -   Partly Cloudy
6:00 AM 73.4 °F - 71.6 °F 94% 29.74 in 31.1 mi Calm Calm - N/A   Partly Cloudy
7:00 AM 75.2 °F - 73.4 °F 94% 29.77 in 31.1 mi Calm Calm - N/A   Partly Cloudy
8:00 AM 82.4 °F 88.2 °F 73.4 °F 74% 29.77 in 31.1 mi SE 8.1 mph - N/A   Scattered Clouds
9:00 AM 84 °F - 72 °F 60% 29.79 in 31 mi SE 9.2 mph - -   Partly Cloudy
9:00 AM 84.2 °F 89.6 °F 71.6 °F 66% 29.77 in 31.1 mi SE 9.2 mph - N/A   Mostly Cloudy
10:00 AM 84.2 °F 90.9 °F 73.4 °F 70% 29.77 in 31.1 mi SE 9.2 mph - N/A   Scattered Clouds
11:00 AM 86.0 °F 91.8 °F 71.6 °F 62% 29.74 in 31.1 mi SE 6.9 mph - N/A   Scattered Clouds
12:00 PM 87 °F - 73 °F 54% 29.75 in 31 mi SSE 11.5 mph - -   Partly Cloudy
12:00 PM 86.0 °F 93.4 °F 73.4 °F 66% 29.74 in 31.1 mi SSE 11.5 mph - N/A   Scattered Clouds
1:00 PM 86.0 °F 93.4 °F 73.4 °F 66% 29.74 in 31.1 mi SE 11.5 mph - N/A   Scattered Clouds
2:00 PM 86.0 °F 91.8 °F 71.6 °F 62% 29.71 in 31.1 mi ESE 9.2 mph - N/A   Mostly Cloudy
3:00 PM 84 °F - 71 °F 58% 29.72 in 31 mi ESE 8.1 mph - -   Partly Cloudy
3:00 PM 84.2 °F 89.6 °F 71.6 °F 66% 29.71 in 31.1 mi ESE 8.1 mph - N/A   Mostly Cloudy
4:00 PM 86.0 °F 93.4 °F 73.4 °F 66% 29.71 in 31.1 mi ESE 8.1 mph - N/A   Scattered Clouds
5:00 PM 86.0 °F 93.4 °F 73.4 °F 66% 29.68 in 31.1 mi ESE 6.9 mph - N/A   Scattered Clouds
6:00 PM 82 °F - 73 °F 68% 29.71 in 31 mi SE 9.2 mph - -   Partly Cloudy
6:00 PM 82.4 °F 88.2 °F 73.4 °F 74% 29.71 in 31.1 mi SE 9.2 mph - N/A   Mostly Cloudy
7:00 PM 80.6 °F 85.4 °F 73.4 °F 79% 29.71 in 31.1 mi SE 4.6 mph - N/A   Scattered Clouds
8:00 PM 80.6 °F 85.4 °F 73.4 °F 79% 29.74 in 31.1 mi SE 4.6 mph - N/A   Scattered Clouds
9:00 PM 80 °F - 73 °F 73% 29.76 in 31 mi SE 4.6 mph - -   Partly Cloudy
9:00 PM 78.8 °F - 73.4 °F 83% 29.74 in 31.1 mi SE 4.6 mph - N/A   Scattered Clouds
10:00 PM 78.8 °F - 71.6 °F 78% 29.74 in 31.1 mi Calm Calm - N/A   Partly Cloudy
11:00 PM 77.0 °F - 73.4 °F 89% 29.74 in 24.9 mi Calm Calm - N/A   Scattered Clouds